SCP
0 0 0 0 0 0 0 0 0 0 0 0 0 0 0 0 0 0 0 0 0 0 0 0 0 0 0 0 0 0 0 0 0 0 0 0 0 0 0 0 0 0 0
0 0 0 0 0 0 0 0 0 0 0 0 0 0 0 0 0 0 0 0 0 0 0 0 0 0 0 0 0 0 0 0 0 0 0 0 0 0 0 0 0 0 0
0 0 0 0 0 0 0 0 0 0 0 0 0 0 0 0 0 0 0 0 0 0 0 0 0 0 0 0 0 0 0 0 0 0 0 0 0 0 0 0 0 0 0
0 0 0 0 0 0 0 0 0 0 0 0 0 0 0 0 0 0 0 0 0 0 0 0 0 0 0 0 0 0 0 0 0 0 0 0 0 0 0 0 0 0 0
0 0 0 0 0 0 0 0 0 0 0 0 0 0 0 0 0 0 0 0 0 0 0 0 0 0 0 0 0 0 0 0 0 0 0 0 0 0 0 0 0 0 0
0 0 0 0 0 0 0 0 0 0 0 0 0 0 0 0 0 0 0 0 0 0 0 0 0 0 0 0 0 0 0 0 0 0 0 0 0 0 0 0 0 0 0
0 0 0 0 0 0 0 0 0 0 0 0 0 0 0 0 0 0 0 0 0 0 0 0 0 0 0 0 0 0 0 0 0 0 0 0 0 0 0 0 0 0 0
0 0 0 0 0 0 0 0 0 0 0 0 0 0 0 0 0 0 0 0 0 0 0 0 0 0 0 0 0 0 0 0 0 0 0 0 0 0 0 0 0 0 0
0 0 0 0 0 0 0 0 0 0 0 0 0 0 0 0 0 0 0 0 0 0 0 0 0 0 0 0 0 0 0 0 0 0 0 0 0 0 0 0 0 0 0
0 0 0 0 0 0 0 0 0 0 0 0 0 0 0 0 0 0 0 0 0 0 0 0 0 0 0 0 0 0 0 0 0 0 0 0 0 0 0 0 0 0 0
0 0 0 0 0 0 0 0 0 0 0 0 0 0 0 0 0 0 0 0 0 0 0 0 0 0 0 0 0 0 0 0 0 0 0 0 0 0 0 0 0 0 0
0 0 0 0 0 0 0 0 0 0 0 0 0 0 0 0 0 0 0 0 0 0 0 0 0 0 0 0 0 0 0 0 0 0 0 0 0 0 0 0 0 0 0
0 0 0 0 0 0 0 0 0 0 0 0 0 0 0 0 0 0 0 0 0 0 0 0 0 0 0 0 0 0 0 0 0 0 0 0 0 0 0 0 0 0 0
0 0 0 0 0 0 0 0 0 0 0 0 0 0 0 0 0 0 0 0 0 0 0 0 0 0 0 0 0 0 0 0 0 0 0 0 0 0 0 0 0 0 0
0 0 0 0 0 0 0 0 0 0 0 0 0 0 0 0 0 0 0 0 0 0 0 0 0 0 0 0 0 0 0 0 0 0 0 0 0 0 0 0 0 0 0
0 0 0 0 0 0 0 0 0 0 0 0 0 0 0 0 0 0 0 0 0 0 0 0 0 0 0 0 0 0 0 0 0 0 0 0 0 0 0 0 0 0 0
0 0 0 0 0 0 0 0 0 0 0 0 0 0 0 0 0 0 0 0 0 0 0 0 0 0 0 0 0 0 0 0 0 0 0 0 0 0 0 0 0 0 0
0 0 0 0 0 0 0 0 0 0 0 0 0 0 0 0 0 0 0 0 0 0 0 0 0 0 0 0 0 0 0 0 0 0 0 0 0 0 0 0 0 0 0
0 0 0 0 0 0 0 0 0 0 0 0 0 0 0 0 0 0 0 0 0 0 0 0 0 0 0 0 0 0 0 0 0 0 0 0 0 0 0 0 0 0 0
0 0 0 0 0 0 0 0 0 0 0 0 0 0 0 0 0 0 0 0 0 0 0 0 0 0 0 0 0 0 0 0 0 0 0 0 0 0 0 0 0 0 0
0 0 0 0 0 0 0 0 0 0 0 0 0 0 0 0 0 0 0 0 0 0 0 0 0 0 0 0 0 0 0 0 0 0 0 0 0 0 0 0 0 0 0
0 0 0 0 0 0 0 0 0 0 0 0 0 0 0 0 0 0 0 0 0 0 0 0 0 0 0 0 0 0 0 0 0 0 0 0 0 0 0 0 0 0 0
0 0 0 0 0 0 0 0 0 0 0 0 0 0 0 0 0 0 0 0 0 0 0 0 0 0 0 0 0 0 0 0 0 0 0 0 0 0 0 0 0 0 0
0 0 0 0 0 0 0 0 0 0 0 0 0 0 0 0 0 0 0 0 0 0 0 0 0 0 0 0 0 0 0 0 0 0 0 0 0 0 0 0 0 0 0
0 0 0 0 0 0 0 0 0 0 0 0 0 0 0 0 0 0 0 0 0 0 0 0 0 0 0 0 0 0 0 0 0 0 0 0 0 0 0 0 0 0 0
0 0 0 0 0 0 0 0 0 0 0 0 0 0 0 0 0 0 0 0 0 0 0 0 0 0 0 0 0 0 0 0 0 0 0 0 0 0 0 0 0 0 0
Wind_Speed
12 11 10 7 4 1 3 5 7 8 8 7 8 8 9 8 7 7 11 12 13 14 13 11 13 13 12 14 16 15 17 15 14 15 15 15 16 15 10 9 9 9 8
13 12 11 8 5 1 2 5 7 8 8 7 7 7 8 7 7 7 9 11 13 14 12 14 13 13 13 16 16 16 14 14 13 13 15 13 13 6 8 10 9 9 8
15 14 12 9 5 1 2 4 6 7 7 8 6 7 6 6 7 9 8 11 13 13 14 15 14 15 14 14 16 16 17 15 14 12 11 10 9 13 10 11 8 9 9
14 13 12 9 5 2 1 3 5 6 7 8 8 10 8 9 10 9 9 13 13 13 14 15 15 15 14 16 16 16 15 16 13 12 11 11 13 11 10 9 11 13 12
14 13 11 9 6 3 0 3 5 6 7 7 8 9 9 8 8 10 12 12 12 13 14 15 15 15 14 16 17 16 16 13 13 12 11 12 12 13 13 14 12 11 10
13 12 11 9 6 4 1 2 4 5 6 7 8 9 10 11 12 12 12 11 10 11 14 15 15 15 14 15 16 15 16 14 14 13 11 11 11 11 11 13 13 12 11
13 13 12 10 7 4 2 3 4 5 6 7 8 9 10 11 12 12 12 12 11 11 15 15 15 15 15 15 15 14 14 14 14 13 11 11 11 11 11 12 12 14 12
13 13 12 9 7 4 3 3 4 5 6 7 8 8 9 8 8 11 11 11 10 12 15 16 16 16 16 15 14 11 12 11 13 13 13 11 10 10 10 11 11 12 12
14 13 11 9 7 5 3 2 4 5 6 7 8 8 9 9 10 11 11 10 11 12 15 16 16 16 16 15 15 10 12 11 11 12 12 10 9 9 9 10 10 10 12
14 13 11 9 7 5 4 3 3 5 6 7 7 7 8 9 10 10 11 12 13 14 15 15 16 16 16 15 14 12 11 12 11 9 11 10 8 8 8 8 8 9 11
15 13 11 9 7 6 4 3 3 5 6 6 7 8 8 9 10 9 11 12 12 13 14 15 15 15 15 15 14 14 13 13 13 12 11 11 11 9 8 7 8 8 8
14 13 11 10 8 7 5 4 4 4 5 6 7 8 8 9 9 10 11 12 13 13 14 14 15 15 15 14 13 13 13 13 13 13 13 13 11 12 9 8 9 8 9
14 12 11 10 9 7 6 5 4 4 5 6 7 8 8 9 10 10 11 11 12 13 13 14 14 14 14 14 12 11 12 12 12 13 13 13 13 13 11 12 10 9 9
15 14 12 10 9 8 6 5 4 4 5 6 7 7 8 9 10 10 10 11 12 12 13 14 14 14 14 13 10 9 10 11 12 12 13 13 13 14 14 11 12 11 11
15 15 13 11 10 9 7 6 5 4 5 6 7 7 8 9 9 10 10 11 11 12 12 13 14 15 13 12 10 6 9 10 11 12 13 14 16 19 15 12 12 12 10
17 16 14 12 11 10 8 6 5 4 4 6 7 7 8 9 9 10 10 11 11 11 12 13 14 14 12 20 20 10 9 9 10 12 13 14 15 19 18 18 18 15 12
17 16 15 13 11 10 8 7 5 4 5 6 7 7 8 9 9 10 10 10 11 11 11 12 13 14 16 22 22 15 10 9 10 11 12 12 14 18 12 14 16 15 16
16 16 14 12 11 9 8 6 5 5 5 6 7 7 7 9 9 10 10 10 10 10 10 11 12 13 15 21 22 18 10 9 10 10 12 13 14 15 16 12 12 12 10
15 14 13 12 11 10 9 7 6 5 6 7 7 7 7 9 10 10 10 10 10 10 11 11 12 13 14 20 23 20 9 8 10 10 11 14 14 21 23 15 13 13 11
12 12 12 12 11 10 9 8 7 7 7 7 7 7 8 9 10 10 11 10 10 10 11 11 11 12 13 18 22 21 8 8 9 9 10 14 18 22 22 15 13 14 13
13 13 13 12 11 11 10 9 8 8 7 6 7 8 8 9 9 10 9 10 10 10 10 11 11 11 13 16 20 21 9 7 8 8 9 10 20 21 21 18 13 17 15
14 15 13 11 10 10 10 10 9 7 6 6 7 8 8 7 7 9 10 9 9 10 10 10 11 10 11 14 16 19 15 12 7 8 8 11 19 20 19 16 19 21 16
15 14 13 12 10 11 11 11 8 6 6 6 7 7 7 7 7 8 9 8 7 7 8 9 9 10 10 12 17 15 15 15 8 7 12 15 17 16 13 17 20 16 11
15 14 14 13 12 12 12 10 7 7 6 6 6 6 6 7 6 6 6 6 6 7 8 9 9 10 10 10 10 9 9 11 9 7 10 13 13 11 13 13 12 10 11
14 14 14 14 14 13 12 11 9 8 7 6 5 5 5 6 6 5 5 6 6 7 9 8 9 10 10 14 19 13 10 9 9 9 7 7 8 8 9 9 9 10 10
15 15 15 14 14 13 12 11 10 9 8 6 5 4 4 4 5 5 5 4 6 10 11 11 11 10 14 19 19 18 16 16 15 10 7 7 8 8 9 9 10 10 10
Wind_Direction
204 187 186 182 180 185 350 351 346 349 348 345 343 340 340 335 337 337 334 332 331 329 325 320 318 316 312 310 308 307 306 305 305 303 303 299 285 272 270 279 285 280 282
201 191 189 188 192 214 352 347 349 347 350 346 337 329 323 322 325 328 328 330 329 325 321 318 315 313 310 308 307 307 304 302 304 305 307 307 301 281 317 295 280 283 293
207 195 192 191 190 199 6 348 344 340 345 342 332 327 322 321 332 333 329 328 324 320 318 315 314 311 309 306 306 305 302 302 302 295 296 299 304 326 296 292 294 303 302
212 198 190 187 183 152 55 336 334 335 343 340 337 337 333 333 333 329 322 322 322 320 319 317 315 311 308 305 305 303 300 297 295 295 288 279 287 291 299 300 303 300 295
207 195 186 176 162 150 171 322 324 330 340 340 337 333 330 328 325 325 323 324 323 321 321 322 319 316 312 308 305 302 298 294 291 291 291 286 282 272 274 288 296 297 295
196 185 170 162 161 165 202 297 314 328 338 337 336 333 330 329 326 328 327 327 323 322 326 327 323 320 316 312 308 304 299 293 289 288 285 283 280 281 282 287 294 296 298
186 178 172 173 175 187 216 277 310 328 337 335 333 331 328 326 326 327 326 325 323 325 327 328 325 323 320 318 313 306 301 296 291 287 283 279 274 275 275 278 286 292 295
187 182 177 175 178 189 218 269 311 327 333 331 330 326 326 324 320 323 321 320 320 321 323 325 324 325 325 324 322 313 306 298 293 288 285 280 276 271 270 273 282 290 295
188 182 176 176 181 191 213 268 307 319 327 326 324 321 326 324 320 320 319 318 320 321 322 323 325 326 328 329 329 323 319 308 298 293 290 285 281 276 271 269 271 281 293
188 183 179 178 182 190 206 242 290 312 317 318 321 317 319 321 319 317 319 321 322 323 324 326 327 328 329 331 330 329 330 324 317 309 304 301 294 290 286 280 278 273 278
189 184 179 178 182 190 207 236 274 298 308 315 316 315 318 319 318 317 320 321 322 325 325 327 328 328 329 330 330 333 335 333 330 329 323 321 318 312 303 298 294 289 286
187 182 178 178 187 198 208 229 260 287 304 309 310 312 315 318 319 320 321 322 323 325 326 326 327 328 329 329 326 332 337 337 335 334 332 328 326 324 321 314 307 304 300
183 180 181 187 193 199 207 223 248 277 294 301 305 309 315 319 320 321 320 322 323 325 327 327 327 326 327 328 323 332 336 338 337 336 335 332 329 329 330 324 319 314 308
186 186 187 191 194 198 206 220 240 264 285 295 300 307 315 319 318 318 319 321 323 324 327 326 325 324 324 324 317 333 336 338 338 337 335 331 328 329 331 329 330 325 316
192 192 192 191 192 196 202 212 231 252 274 289 297 305 311 314 313 315 317 319 322 323 324 324 324 324 324 322 327 335 342 343 341 338 336 330 332 333 336 337 336 332 322
197 195 193 191 193 196 198 202 221 244 270 280 286 294 303 308 310 313 316 317 320 321 323 323 322 322 322 324 337 353 344 348 344 338 335 331 333 334 337 338 338 335 329
197 194 193 192 191 190 188 194 208 228 252 266 276 287 295 301 305 309 311 316 318 318 318 317 317 318 319 325 333 344 342 346 345 339 336 334 334 339 333 338 339 332 332
195 193 190 186 182 175 174 184 199 228 249 264 270 276 285 294 301 307 310 315 315 314 312 314 315 317 318 324 327 334 333 334 340 338 335 333 335 336 348 344 336 331 330
191 187 182 175 168 169 171 175 203 224 242 255 264 273 280 288 297 303 309 314 313 310 309 313 317 319 319 322 324 332 321 328 334 334 336 335 339 343 353 349 339 335 336
179 172 166 165 167 171 169 182 207 221 236 249 265 276 282 288 295 302 308 311 311 307 311 313 316 316 314 317 321 328 320 326 329 334 336 337 345 349 353 351 344 341 341
170 166 164 170 173 167 171 193 211 224 234 251 269 278 284 290 296 299 304 307 308 308 311 313 317 317 318 319 321 327 333 329 328 333 336 337 346 350 352 353 350 348 345
172 170 170 173 168 169 179 200 215 220 225 247 266 278 287 292 292 300 305 309 311 311 314 317 320 321 324 325 325 332 341 343 331 331 335 338 346 349 351 353 354 354 351
176 175 174 170 172 181 191 205 209 203 217 244 264 280 289 291 295 302 308 313 318 316 317 317 320 325 326 329 334 340 344 345 344 334 334 339 345 346 347 351 356 356 352
180 176 176 180 185 189 198 208 199 196 216 243 265 281 289 296 303 305 306 313 315 316 317 324 327 327 330 337 344 351 349 347 347 340 333 337 342 345 347 350 354 355 355
180 180 185 188 190 188 196 199 197 198 214 236 257 275 285 295 301 306 309 310 308 315 322 326 326 328 332 341 349 357 354 353 354 343 335 343 346 349 352 352 354 355 355
179 183 189 192 190 188 193 192 191 195 207 224 243 264 283 295 306 312 312 302 304 321 330 331 332 327 333 341 349 354 355 354 355 350 345 346 346 348 348 349 351 353 355